Location: St. Louis
(38.6270°N, 90.1994°W)
Time: 22:19:07
(UTC-06:00)

XW-2F - Visible Passes

Search period start: 24 January 2022 00:00
Search period end: 03 February 2022 00:00
Orbit: 494 x 515 km, 97.5° (Epoch: 24 January)

Date Brightness Start Highest point End Pass type
(mag) Time Alt. Az. Time Alt. Az. Time Alt. Az.
24 Jan ? 06:16:38 10° NNE 06:20:17 88° WNW 06:23:56 10° SSW visible
24 Jan ? 18:29:05 10° SW 18:31:16 15° W 18:33:26 10° WNW visible
25 Jan ? 05:58:32 10° NNE 06:02:06 50° E 06:05:40 10° S visible
25 Jan ? 18:09:54 10° SSW 18:12:59 25° W 18:16:03 10° NW visible
26 Jan ? 05:40:40 10° NE 05:43:53 28° E 05:47:05 10° SSE visible
26 Jan ? 17:51:13 10° S 17:54:44 42° W 17:58:15 10° NNW visible
27 Jan ? 05:23:08 10° NE 05:25:36 17° E 05:28:03 10° SE visible
28 Jan ? 06:37:49 10° N 06:41:19 44° WNW 06:44:48 10° SSW visible
29 Jan ? 06:19:30 10° N 06:23:09 81° WNW 06:26:49 10° SSW visible
29 Jan ? 18:32:13 10° SW 18:34:08 14° W 18:36:03 10° WNW visible
30 Jan ? 06:01:20 10° NNE 06:04:56 55° E 06:08:32 10° S visible
30 Jan ? 18:12:51 10° SSW 18:15:49 23° W 18:18:46 10° NW visible
31 Jan ? 05:43:23 10° NNE 05:46:41 31° E 05:49:58 10° SSE visible
31 Jan ? 17:54:04 10° S 17:57:31 39° W 18:00:58 10° NNW visible
01 Feb ? 05:25:44 10° NE 05:28:22 18° E 05:30:59 10° SE visible
02 Feb ? 05:09:00 10° ENE 05:10:00 11° E 05:10:59 10° ESE visible
